GW6359 Weather Reports


Display with metric or nautical units.
time (UTC)temp
F
wind
direction
speed
MPH
gust
MPH
rain 1hr
in
rain 24hr
in
rain mn
in
humidity
%
barometer
mb
20260506173503 68 28 3.0 6.0 0.00 0.03 0.03 81 1010.7
20260506173003 68 55 3.0 6.0 0.00 0.03 0.03 81 1010.8
20260506172503 68 116 4.0 6.0 0.00 0.03 0.03 83 1010.9
20260506172003 67 71 3.0 7.0 0.00 0.03 0.03 82 1010.8
20260506171503 67 77 2.0 8.0 0.00 0.03 0.03 84 1010.9
20260506171003 66 15 3.0 8.0 0.00 0.03 0.03 86 1010.9
20260506170503 65 357 3.0 8.0 0.00 0.03 0.03 87 1010.7
20260506170003 65 31 3.0 7.0 0.00 0.03 0.03 87 1011.1
20260506165503 64 53 3.0 8.0 0.01 0.03 0.03 90 1011.1
20260506165003 64 40 3.0 10.0 0.01 0.03 0.03 93 1011.2
20260506164503 63 20 3.0 10.0 0.01 0.03 0.03 93 1011.4
20260506164003 63 29 3.0 7.0 0.01 0.03 0.03 92 1011.1
20260506163503 64 11 3.0 7.0 0.01 0.03 0.03 92 1011.7
20260506163003 64 340 4.0 9.0 0.02 0.03 0.03 92 1012.0
20260506162503 64 356 4.0 9.0 0.03 0.03 0.03 91 1012.0
20260506162003 65 2 4.0 12.0 0.03 0.03 0.03 91 1011.9
20260506161716 65 4 4.0 12.0 0.03 0.03 0.03 91 1012.3
20260506161003 66 360 5.0 10.0 0.03 0.03 0.03 90 1011.8
20260506160503 66 354 5.0 12.0 0.03 0.03 0.03 89 1011.9
20260506160003 68 360 4.0 12.0 0.03 0.03 0.03 89 1012.0
20260506155503 69 349 3.0 9.0 0.02 0.02 0.02 87 1011.9
20260506155003 71 355 5.0 9.0 0.02 0.02 0.02 86 1011.7
20260506154503 73 7 5.0 9.0 0.02 0.02 0.02 83 1011.5
20260506154217 76 1 4.0 9.0 0.02 0.02 0.02 89 1011.0
20260506153503 76 354 1.0 4.0 0.02 0.02 0.02 92 1010.9
20260506153003 76 109 0.0 4.0 0.01 0.01 0.01 91 1010.9
20260506152503 76 130 1.0 4.0 0.00 0.00 0.00 90 1010.4
20260506152003 76 116 1.0 3.0 0.00 0.00 0.00 90 1010.1
20260506151718 76 124 1.0 3.0 0.00 0.00 0.00 89 1010.4
20260506151003 77 133 0.0 2.0 0.00 0.00 0.00 89 1010.1
20260506150503 76 157 0.0 2.0 0.00 0.00 0.00 88 1010.1
20260506150003 76 151 0.0 3.0 0.00 0.00 0.00 88 1009.9
20260506145503 77 152 0.0 3.0 0.00 0.00 0.00 88 1009.7
20260506145217 77 172 0.0 2.0 0.00 0.00 0.00 87 1009.7
20260506144503 77 191 0.0 3.0 0.00 0.00 0.00 88 1009.6
20260506144003 77 174 1.0 3.0 0.00 0.00 0.00 87 1009.5
20260506143503 77 167 1.0 2.0 0.00 0.00 0.00 88 1009.4
20260506143004 77 114 1.0 5.0 0.00 0.00 0.00 88 1009.2
20260506142503 76 127 2.0 5.0 0.00 0.00 0.00 88 1008.9
20260506142003 77 116 2.0 5.0 0.00 0.00 0.00 88 1009.0
20260506141503 77 2 2.0 4.0 0.00 0.00 0.00 88 1009.0
20260506141003 77 333 1.0 4.0 0.00 0.00 0.00 87 1009.5
20260506140503 77 242 0.0 2.0 0.00 0.00 0.00 88 1009.5
20260506140216 76 234 0.0 3.0 0.00 0.00 0.00 88 1009.3
20260506135503 76 124 1.0 4.0 0.00 0.00 0.00 89 1009.0
20260506135003 76 145 1.0 4.0 0.00 0.00 0.00 89 1008.8
20260506134503 76 186 2.0 4.0 0.00 0.00 0.00 90 1008.6
20260506134004 76 311 1.0 4.0 0.00 0.00 0.00 91 1008.7
20260506133504 75 157 1.0 4.0 0.00 0.00 0.00 91 1008.5
20260506133003 75 168 1.0 4.0 0.00 0.00 0.00 91 1008.6
20260506132503 75 173 1.0 4.0 0.00 0.00 0.00 91 1008.6
20260506132003 75 192 1.0 4.0 0.00 0.00 0.00 91 1008.6
20260506131503 75 233 1.0 3.0 0.00 0.00 0.00 91 1008.6
20260506131003 75 198 1.0 3.0 0.00 0.00 0.00 91 1008.5
20260506130717 75 212 1.0 3.0 0.00 0.00 0.00 91 1008.5
20260506130003 75 230 0.0 3.0 0.00 0.00 0.00 92 1008.3
20260506125503 75 258 0.0 3.0 0.00 0.00 0.00 92 1008.4
20260506125003 74 154 0.0 2.0 0.00 0.00 0.00 93 1008.4
20260506124503 74 155 0.0 2.0 0.00 0.00 0.00 93 1008.4
20260506124003 74 228 0.0 2.0 0.00 0.00 0.00 93 1008.4
20260506123503 74 193 1.0 4.0 0.00 0.00 0.00 93 1008.3
20260506123003 74 187 2.0 4.0 0.00 0.00 0.00 93 1008.4
20260506122717 74 170 2.0 4.0 0.00 0.00 0.00 93 1008.4
20260506122003 74 138 1.0 3.0 0.00 0.00 0.00 93 1008.5
20260506121717 74 179 1.0 4.0 0.00 0.00 0.00 93 1008.5
20260506121003 74 200 1.0 4.0 0.00 0.00 0.00 93 1008.4
20260506120503 74 25 2.0 4.0 0.00 0.00 0.00 93 1008.2
20260506120003 74 11 2.0 4.0 0.00 0.00 0.00 92 1008.3
20260506115503 74 335 2.0 4.0 0.00 0.00 0.00 92 1008.1
20260506115218 74 306 1.0 3.0 0.00 0.00 0.00 92 1008.1
20260506114503 75 218 1.0 6.0 0.00 0.00 0.00 91 1008.3
20260506114003 75 192 2.0 6.0 0.00 0.00 0.00 91 1008.3
20260506113503 75 205 2.0 5.0 0.00 0.00 0.00 91 1008.1
20260506113003 75 182 1.0 4.0 0.00 0.00 0.00 91 1008.1
20260506112717 75 171 1.0 5.0 0.00 0.00 0.00 91 1008.2
20260506112003 75 183 2.0 5.0 0.00 0.00 0.00 91 1008.2
20260506111503 75 223 1.0 3.0 0.00 0.00 0.00 91 1008.0
20260506111003 75 204 1.0 3.0 0.00 0.00 0.00 91 1008.0
20260506110503 75 350 1.0 3.0 0.00 0.00 0.00 90 1008.2
20260506110003 75 340 1.0 4.0 0.00 0.00 0.00 90 1008.3
20260506105503 75 318 2.0 4.0 0.00 0.00 0.00 90 1008.0
20260506105003 75 283 2.0 4.0 0.00 0.00 0.00 91 1008.0
20260506104716 75 289 1.0 3.0 0.00 0.00 0.00 91 1008.1
20260506104003 75 133 0.0 3.0 0.00 0.00 0.00 91 1008.1
20260506103716 75 135 0.0 3.0 0.00 0.00 0.00 91 1008.0
20260506103217 75 179 1.0 3.0 0.00 0.00 0.00 91 1007.8
20260506102503 75 188 0.0 2.0 0.00 0.00 0.00 91 1007.9
20260506102003 75 196 1.0 2.0 0.00 0.00 0.00 91 1007.7
20260506101503 75 206 1.0 3.0 0.00 0.00 0.00 91 1007.7
20260506101003 75 258 1.0 3.0 0.00 0.00 0.00 91 1007.7
20260506100503 75 255 1.0 3.0 0.00 0.00 0.00 91 1007.7
20260506100003 75 222 0.0 4.0 0.00 0.00 0.00 91 1007.6
20260506095503 75 208 1.0 4.0 0.00 0.00 0.00 90 1007.5
20260506095003 75 199 1.0 5.0 0.00 0.00 0.00 90 1007.5
20260506094503 75 191 1.0 5.0 0.00 0.00 0.00 90 1007.3
20260506094003 75 178 1.0 4.0 0.00 0.00 0.00 90 1007.3
20260506093718 75 187 1.0 4.0 0.00 0.00 0.00 90 1007.2
20260506093217 75 213 1.0 4.0 0.00 0.00 0.00 90 1007.3
20260506092503 75 199 1.0 4.0 0.00 0.00 0.00 90 1007.0
20260506092003 75 195 1.0 4.0 0.00 0.00 0.00 91 1007.1
20260506091503 75 206 1.0 4.0 0.00 0.00 0.00 90 1006.9
20260506091003 75 200 1.0 5.0 0.00 0.00 0.00 90 1006.9
20260506090503 75 197 1.0 5.0 0.00 0.00 0.00 90 1006.9
20260506090217 75 204 2.0 5.0 0.00 0.00 0.00 90 1006.8
20260506085503 75 214 2.0 6.0 0.00 0.00 0.00 90 1006.8
20260506085003 75 210 1.0 6.0 0.00 0.00 0.00 90 1007.1
20260506084718 75 198 1.0 6.0 0.00 0.00 0.00 90 1006.9
20260506084003 75 207 2.0 6.0 0.00 0.00 0.00 90 1007.0
20260506083503 75 190 1.0 5.0 0.00 0.00 0.00 90 1007.1
20260506083217 75 201 1.0 5.0 0.00 0.00 0.00 90 1007.1
20260506082503 75 178 1.0 6.0 0.00 0.00 0.00 90 1007.0
20260506082003 75 174 1.0 6.0 0.00 0.00 0.00 90 1006.9
20260506081503 75 195 1.0 6.0 0.00 0.00 0.00 90 1007.1
20260506081003 75 195 1.0 7.0 0.00 0.00 0.00 90 1007.0
20260506080503 75 184 2.0 7.0 0.00 0.00 0.00 90 1007.0
20260506073503 76 199 2.0 8.0 0.00 0.00 0.00 89 1007.2
20260506073003 76 196 2.0 8.0 0.00 0.00 0.00 89 1007.3
20260506072503 76 196 2.0 7.0 0.00 0.00 0.00 90 1007.4
20260506072218 76 197 2.0 7.0 0.00 0.00 0.00 90 1007.3
20260506071503 75 189 2.0 7.0 0.00 0.00 0.00 90 1007.5
20260506071218 75 186 2.0 7.0 0.00 0.00 0.00 90 1007.4
20260506070503 75 194 2.0 5.0 0.00 0.00 0.00 90 1007.5
20260506062503 76 203 2.0 8.0 0.00 0.00 0.00 89 1007.5
20260506062003 76 196 2.0 7.0 0.00 0.00 0.00 89 1007.7
20260506061503 76 215 2.0 7.0 0.00 0.00 0.00 89 1007.4
20260506061003 76 193 3.0 10.0 0.00 0.00 0.00 89 1007.4
20260506060503 76 186 2.0 10.0 0.00 0.00 0.00 89 1007.6
20260506051217 76 162 2.0 7.0 0.00 0.00 0.00 89 1007.5
20260506050503 76 207 2.0 7.0 0.00 0.00 0.00 89 1007.6
20260506045003 76 200 1.0 5.0 0.00 0.00 0.00 88 1007.6
20260506044503 76 199 2.0 10.0 0.00 0.00 0.00 88 1007.8
20260506044217 76 198 2.0 10.0 0.00 0.00 0.00 87 1007.6
20260506043503 77 182 2.0 6.0 0.00 0.00 0.00 87 1007.8
20260506043003 77 190 1.0 4.0 0.00 0.00 0.00 87 1007.5
20260506042503 77 187 1.0 5.0 0.00 0.00 0.00 87 1007.5
20260506042003 77 181 1.0 5.0 0.00 0.00 0.00 87 1007.3
20260506041503 77 182 1.0 6.0 0.00 0.00 0.00 87 1007.3
20260506041003 77 189 1.0 6.0 0.00 0.00 0.00 87 1007.5
20260506040718 77 193 2.0 6.0 0.00 0.00 0.00 87 1007.3
20260506040003 77 179 1.0 4.0 0.00 0.00 0.00 87 1007.2
20260506035503 77 179 1.0 5.0 0.00 0.00 0.00 87 1007.2
20260506035003 77 183 1.0 5.0 0.00 0.00 0.00 87 1007.0
20260506034503 77 198 1.0 7.0 0.00 0.00 0.00 87 1007.1
20260506034003 77 203 2.0 7.0 0.00 0.00 0.00 86 1007.1
20260506033503 77 198 2.0 6.0 0.00 0.00 0.00 86 1007.0
20260506033003 77 178 1.0 6.0 0.00 0.00 0.00 86 1007.1
20260506032718 77 170 1.0 5.0 0.00 0.00 0.00 86 1006.9
20260506032003 77 202 2.0 4.0 0.00 0.00 0.00 86 1006.7
20260506031503 77 197 2.0 6.0 0.00 0.00 0.00 85 1006.8
20260506031217 77 186 2.0 6.0 0.00 0.00 0.00 85 1006.9
20260506030717 78 182 1.0 6.0 0.00 0.00 0.00 85 1006.6
20260506030003 78 183 2.0 6.0 0.00 0.00 0.00 85 1006.4
20260506025717 78 188 2.0 6.0 0.00 0.00 0.00 85 1006.4
20260506025003 78 210 2.0 6.0 0.00 0.00 0.00 84 1006.4
20260506024503 78 205 2.0 6.0 0.00 0.00 0.00 84 1006.3
20260506024003 78 189 1.0 5.0 0.00 0.00 0.00 84 1006.3
20260506023717 78 199 2.0 4.0 0.00 0.00 0.00 84 1006.3
20260506023003 78 211 1.0 4.0 0.00 0.00 0.00 83 1006.0
20260506022503 78 200 0.0 4.0 0.00 0.00 0.00 82 1005.8
20260506022003 78 186 0.0 4.0 0.00 0.00 0.00 82 1005.8
20260506021503 79 189 1.0 3.0 0.00 0.00 0.00 81 1005.8
20260506021003 79 202 1.0 3.0 0.00 0.00 0.00 81 1005.7
20260506020717 79 213 1.0 3.0 0.00 0.00 0.00 80 1005.6
20260506020003 79 200 1.0 4.0 0.00 0.00 0.00 80 1005.4
20260506015503 79 193 1.0 4.0 0.00 0.00 0.00 80 1005.4
20260506015003 79 194 1.0 4.0 0.00 0.00 0.00 79 1005.3
20260506014717 80 194 1.0 4.0 0.00 0.00 0.00 79 1005.4
20260506014003 80 198 1.0 3.0 0.00 0.00 0.00 79 1005.4
20260506013503 80 207 1.0 3.0 0.00 0.00 0.00 79 1005.3
20260506013003 80 200 1.0 2.0 0.00 0.00 0.00 78 1005.3
20260506012503 80 209 0.0 4.0 0.00 0.00 0.00 78 1005.2
20260506012003 80 204 0.0 4.0 0.00 0.00 0.00 77 1005.3
20260506011503 81 209 0.0 2.0 0.00 0.00 0.00 77 1005.5
20260506011218 81 209 0.0 2.0 0.00 0.00 0.00 76 1005.5
20260506010717 81 211 0.0 2.0 0.00 0.00 0.00 76 1005.5
20260506010003 82 208 1.0 4.0 0.00 0.00 0.00 75 1005.3
20260506005503 82 208 1.0 4.0 0.00 0.00 0.00 74 1005.3
20260506005003 82 222 1.0 2.0 0.00 0.00 0.00 74 1005.5
20260506004504 82 224 0.0 3.0 0.00 0.00 0.00 74 1005.3
20260506004003 82 208 1.0 3.0 0.00 0.00 0.00 73 1005.4
20260506003503 82 201 2.0 4.0 0.00 0.00 0.00 73 1005.2
20260506003217 82 201 1.0 4.0 0.00 0.00 0.00 73 1005.3
20260506002717 82 197 1.0 4.0 0.00 0.00 0.00 73 1005.0
20260506002003 83 209 1.0 4.0 0.00 0.00 0.00 73 1005.0
20260506001503 83 209 1.0 4.0 0.00 0.00 0.00 73 1005.2
20260506001003 83 204 1.0 5.0 0.00 0.00 0.00 72 1004.9
20260506000503 83 218 1.0 5.0 0.00 0.00 0.00 72 1005.2
20260506000003 83 220 1.0 4.0 0.00 0.00 0.00 72 1004.9
20260505235716 83 217 1.0 4.0 0.00 0.00 0.00 72 1005.0
20260505235003 83 196 1.0 6.0 0.00 0.00 0.00 72 1004.9
20260505234503 83 200 1.0 6.0 0.00 0.00 0.00 71 1004.9
20260505234003 83 171 1.0 4.0 0.00 0.00 0.00 71 1004.6
20260505233503 83 166 1.0 4.0 0.00 0.00 0.00 71 1004.9
20260505233003 83 205 1.0 6.0 0.00 0.00 0.00 70 1004.7
20260505232503 84 209 1.0 6.0 0.00 0.00 0.00 70 1004.7
20260505232218 84 208 1.0 6.0 0.00 0.00 0.00 70 1004.9
20260505231503 84 224 1.0 6.0 0.00 0.00 0.00 68 1004.7
20260505231003 84 233 2.0 5.0 0.00 0.00 0.00 69 1004.9
20260505230503 84 248 2.0 5.0 0.00 0.00 0.00 69 1004.4
20260505230003 84 236 2.0 8.0 0.00 0.00 0.00 69 1004.6
20260505225503 84 204 2.0 8.0 0.00 0.00 0.00 69 1004.6
20260505225003 84 186 2.0 6.0 0.00 0.00 0.00 69 1004.5
20260505224503 84 206 2.0 7.0 0.00 0.00 0.00 69 1004.6
20260505224003 84 203 3.0 7.0 0.00 0.00 0.00 69 1004.5
20260505223503 84 210 3.0 7.0 0.00 0.00 0.00 67 1004.6
20260505223003 85 207 2.0 6.0 0.00 0.00 0.00 67 1004.5
20260505222503 84 214 2.0 7.0 0.00 0.00 0.00 67 1004.5
20260505222003 84 235 2.0 7.0 0.00 0.00 0.00 66 1004.4
20260505221718 85 227 1.0 7.0 0.00 0.00 0.00 66 1004.5
20260505221003 85 211 3.0 8.0 0.00 0.00 0.00 65 1004.6
20260505220503 85 210 2.0 8.0 0.00 0.00 0.00 65 1004.7
20260505220003 85 214 2.0 8.0 0.00 0.00 0.00 65 1004.9
20260505215503 85 210 2.0 6.0 0.00 0.00 0.00 66 1005.0
20260505215003 84 203 2.0 6.0 0.00 0.00 0.00 66 1005.2
20260505214503 85 201 2.0 10.0 0.00 0.00 0.00 67 1005.0
20260505214003 84 178 2.0 10.0 0.00 0.00 0.00 67 1005.3
20260505213503 85 188 2.0 10.0 0.00 0.00 0.00 66 1005.2
20260505213003 86 215 2.0 7.0 0.00 0.00 0.00 65 1005.3
20260505212503 85 220 2.0 7.0 0.00 0.00 0.00 65 1005.5
20260505212003 85 231 2.0 11.0 0.00 0.00 0.00 64 1005.2
20260505211503 85 233 3.0 11.0 0.00 0.00 0.00 64 1005.4
20260505211003 84 202 3.0 14.0 0.00 0.00 0.00 67 1005.4
20260505210503 84 200 3.0 14.0 0.00 0.00 0.00 66 1005.4
20260505210003 83 213 3.0 6.0 0.00 0.00 0.00 67 1005.4
20260505205503 84 225 2.0 6.0 0.00 0.00 0.00 67 1005.6
20260505205218 83 235 2.0 6.0 0.00 0.00 0.00 68 1005.5
20260505204503 83 236 2.0 7.0 0.00 0.00 0.00 68 1005.8
20260505204003 83 230 2.0 7.0 0.00 0.00 0.00 68 1005.9
20260505203503 83 224 3.0 7.0 0.00 0.00 0.00 70 1006.1
20260505203003 82 196 2.0 7.0 0.00 0.00 0.00 70 1006.2
20260505202717 83 200 2.0 7.0 0.00 0.00 0.00 69 1006.1
20260505202003 82 250 2.0 5.0 0.00 0.00 0.00 69 1006.4
20260505201503 82 239 2.0 5.0 0.00 0.00 0.00 69 1006.5
20260505201003 83 216 2.0 7.0 0.00 0.00 0.00 69 1006.6
20260505200503 82 214 2.0 7.0 0.00 0.00 0.00 70 1006.5
20260505200003 82 229 2.0 5.0 0.00 0.00 0.00 70 1006.4
20260505195503 81 202 2.0 8.0 0.00 0.00 0.00 71 1006.6
20260505195003 82 190 2.0 8.0 0.00 0.00 0.00 70 1006.6
20260505194503 81 198 2.0 8.0 0.00 0.00 0.00 72 1006.7
20260505194004 81 192 2.0 8.0 0.00 0.00 0.00 72 1006.7
20260505193503 82 188 2.0 6.0 0.00 0.00 0.00 71 1006.8
20260505193003 82 204 2.0 8.0 0.00 0.00 0.00 71 1006.9
20260505192503 81 215 2.0 8.0 0.00 0.00 0.00 72 1006.8
20260505192003 81 204 3.0 10.0 0.00 0.00 0.00 71 1007.2
20260505191503 80 204 3.0 10.0 0.00 0.00 0.00 72 1006.8
20260505191003 81 231 2.0 10.0 0.00 0.00 0.00 71 1006.8
20260505190503 81 232 2.0 4.0 0.00 0.00 0.00 72 1006.9
20260505190003 79 236 2.0 4.0 0.00 0.00 0.00 72 1007.0
20260505185717 80 236 1.0 8.0 0.00 0.00 0.00 73 1007.1
20260505185217 80 217 2.0 8.0 0.00 0.00 0.00 73 1007.1
20260505184716 80 221 3.0 8.0 0.00 0.00 0.00 73 1007.1
20260505184003 80 241 2.0 5.0 0.00 0.00 0.00 73 1007.3
20260505183503 79 246 2.0 6.0 0.00 0.00 0.00 75 1007.3
20260505183003 79 174 2.0 6.0 0.00 0.00 0.00 75 1007.4
20260505182503 78 205 2.0 6.0 0.00 0.00 0.00 76 1007.6
20260505182003 79 227 2.0 6.0 0.00 0.00 0.00 76 1007.5
20260505181503 78 239 2.0 6.0 0.00 0.00 0.00 76 1007.6
20260505181003 78 232 2.0 4.0 0.00 0.00 0.00 77 1007.6
20260505180718 78 241 1.0 4.0 0.00 0.00 0.00 77 1007.4
20260505180003 77 244 2.0 4.0 0.00 0.00 0.00 78 1007.8
20260505175503 77 229 2.0 6.0 0.00 0.00 0.00 77 1007.7
20260505175003 77 208 2.0 6.0 0.00 0.00 0.00 77 1007.7
20260505174503 77 192 1.0 5.0 0.00 0.00 0.00 78 1007.8
20260505174003 77 207 1.0 7.0 0.00 0.00 0.00 79 1007.8